This is the latest recevied weather packets stored in our database for station/object K3PPP. If no packets are shown the sender has not sent any weather packets the latest 1 day(s).
| Time | Temp. | Humidity | Pressure | Rain* | Wind** | Luminosity | Snow |
|---|---|---|---|---|---|---|---|
| 1778034731 | 16.11° C | 60% | 1010.7 hPa | 0 mm | - | 0 W/m² | - |
| 1778034428 | 16.11° C | 59% | 1010.4 hPa | 0 mm | - | 0 W/m² | - |
| 1778034126 | 16.11° C | 60% | 1010.4 hPa | 0 mm | - | 0 W/m² | - |
| 1778033824 | 16.67° C | 58% | 1010.4 hPa | 0 mm | - | 0 W/m² | - |
| 1778032310 | 16.11° C | 59% | 1010.1 hPa | 0 mm | - | 0 W/m² | - |
| 1778032007 | 16.11° C | 60% | 1010.4 hPa | 0 mm | - | 0 W/m² | - |
| 1778031401 | 16.11° C | 59% | 1010.6 hPa | 0 mm | - | 0 W/m² | - |
| 1778031098 | 16.11° C | 59% | 1010.3 hPa | 0 mm | - | 0 W/m² | - |
| 1778030794 | 16.11° C | 60% | 1010.4 hPa | 0 mm | - | 0 W/m² | - |
| 1778029884 | 15.56° C | 60% | 1010.3 hPa | 0 mm | - | 0 W/m² | - |
| 1778028673 | 15.56° C | 60% | 1010.7 hPa | 0 mm | - | 0 W/m² | - |
| 1778028370 | 15.56° C | 60% | 1010.3 hPa | 0 mm | - | 0 W/m² | - |
| 1778028067 | 15.56° C | 61% | 1010.4 hPa | 0 mm | - | 0 W/m² | - |
| 1778027763 | 15.56° C | 61% | 1010.6 hPa | 0 mm | - | 0 W/m² | - |
| 1778027459 | 16.11° C | 60% | 1010.6 hPa | 0 mm | - | 0 W/m² | - |
| 1778027155 | 16.67° C | 59% | 1010.3 hPa | 0 mm | - | 1 W/m² | - |
| 1778026245 | 17.22° C | 55% | 1010.3 hPa | 0 mm | - | 4 W/m² | - |
| 1778024428 | 18.33° C | 53% | 1010.1 hPa | 0 mm | - | 23 W/m² | - |
| 1778023823 | 18.33° C | 51% | 1010.2 hPa | 0 mm | - | 50 W/m² | - |
| 1778023521 | 18.89° C | 50% | 1010.2 hPa | 0 mm | - | 52 W/m² | - |
| 1778023218 | 18.33° C | 50% | 1010.1 hPa | 0 mm | - | 42 W/m² | - |
| 1778022007 | 18.89° C | 48% | 1010.3 hPa | 0 mm | - | 46 W/m² | - |
| 1778020794 | 18.89° C | 47% | 1010.6 hPa | 0 mm | - | 61 W/m² | - |
| 1778019579 | 19.44° C | 45% | 1010.7 hPa | 0 mm | - | 110 W/m² | - |
| 1778019277 | 20° C | 45% | 1010.9 hPa | 0 mm | - | 118 W/m² | - |
* Rain latest hour (hover to see other rain measurements)
** Current wind speed in m/s (hover to see current wind gust speed)